カタログに戻る

HULIANWANG DIGUI-156

運用中通信LEO
NORAD 68130·PAYLOAD·🇨🇳 China

打ち上げ Mar 12, 2026 から Wenchang Space Launch Site

Loading…

次のパス (今後24時間)

TLE

最新Source: Space-Track

元期: Sep 14, 2026, 21:50 UTC

1 68130U 26047B   26257.90992483 -.00000144  00000-0 -42235-4 0  9994
2 68130  50.0024  94.5146 0001263  71.3501 288.7508 13.29319483 24994

AllMySatでHULIANWANG DIGUI-156をリアルタイム追跡

Download on the App Store